| time (UTC) | temp F | wind direction | speed MPH | gust MPH | rain 1hr in | rain 24hr in | rain mn in | humidity % | barometer mb |
| 20260906134518 | 63 | 229 | 0.0 | 0.0 | 0.00 | 0.00 | 0.00 | 83 | 1015.1 |
| 20260906134010 | 63 | 297 | 0.0 | 0.0 | 0.00 | 0.00 | 0.00 | 84 | 1015.1 |
| 20260906133515 | 63 | 323 | 0.0 | 0.0 | 0.00 | 0.00 | 0.00 | 82 | 1014.9 |
| 20260906133023 | 63 | 309 | 0.0 | 0.0 | 0.00 | 0.00 | 0.00 | 82 | 1014.9 |
| 20260906132514 | 63 | 299 | 0.0 | 0.0 | 0.00 | 0.00 | 0.00 | 83 | 1014.9 |
| 20260906132014 | 63 | 271 | 0.0 | 0.0 | 0.00 | 0.00 | 0.00 | 84 | 1014.9 |
| 20260906131529 | 62 | 303 | 0.0 | 0.0 | 0.00 | 0.00 | 0.00 | 85 | 1014.8 |
| 20260906131016 | 62 | 290 | 0.0 | 0.0 | 0.00 | 0.00 | 0.00 | 86 | 1014.9 |
| 20260906130518 | 62 | 290 | 0.0 | 0.0 | 0.00 | 0.00 | 0.00 | 86 | 1014.9 |
| 20260906130041 | 61 | 1 | 0.0 | 0.0 | 0.00 | 0.00 | 0.00 | 88 | 1014.9 |
| 20260906125507 | 61 | 55 | 0.0 | 0.0 | 0.00 | 0.00 | 0.00 | 87 | 1014.9 |
| 20260906125006 | 61 | 55 | 0.0 | 0.0 | 0.00 | 0.00 | 0.00 | 88 | 1014.9 |
| 20260906124518 | 61 | 55 | 0.0 | 0.0 | 0.00 | 0.00 | 0.00 | 89 | 1014.9 |
| 20260906124011 | 61 | 55 | 0.0 | 0.0 | 0.00 | 0.00 | 0.00 | 89 | 1014.8 |
| 20260906123510 | 60 | 55 | 0.0 | 0.0 | 0.00 | 0.00 | 0.00 | 90 | 1014.8 |
| 20260906123026 | 60 | 55 | 0.0 | 0.0 | 0.00 | 0.00 | 0.00 | 89 | 1014.9 |
| 20260906122512 | 60 | 55 | 0.0 | 0.0 | 0.00 | 0.00 | 0.00 | 90 | 1014.9 |
| 20260906122014 | 60 | 55 | 0.0 | 0.0 | 0.00 | 0.00 | 0.00 | 91 | 1014.8 |
| 20260906121527 | 60 | 55 | 0.0 | 0.0 | 0.00 | 0.00 | 0.00 | 91 | 1014.7 |
| 20260906121015 | 60 | 55 | 0.0 | 0.0 | 0.00 | 0.00 | 0.00 | 91 | 1014.7 |
| 20260906120516 | 60 | 55 | 0.0 | 0.0 | 0.00 | 0.00 | 0.00 | 91 | 1014.7 |
| 20260906120030 | 60 | 55 | 0.0 | 0.0 | 0.00 | 0.00 | 0.00 | 91 | 1014.7 |
| 20260906115521 | 60 | 55 | 0.0 | 0.0 | 0.00 | 0.00 | 0.00 | 91 | 1014.5 |
| 20260906115014 | 59 | 55 | 0.0 | 0.0 | 0.00 | 0.00 | 0.00 | 91 | 1014.5 |
| 20260906114534 | 59 | 55 | 0.0 | 0.0 | 0.00 | 0.00 | 0.00 | 91 | 1014.4 |
| 20260906114011 | 59 | 55 | 0.0 | 0.0 | 0.00 | 0.00 | 0.00 | 91 | 1014.4 |
| 20260906113510 | 59 | 55 | 0.0 | 0.0 | 0.00 | 0.00 | 0.00 | 91 | 1014.4 |
| 20260906113027 | 59 | 55 | 0.0 | 0.0 | 0.00 | 0.00 | 0.00 | 91 | 1014.3 |
| 20260906112512 | 59 | 55 | 0.0 | 0.0 | 0.00 | 0.00 | 0.00 | 91 | 1014.4 |
| 20260906112005 | 59 | 55 | 0.0 | 0.0 | 0.00 | 0.00 | 0.00 | 92 | 1014.3 |
| 20260906111506 | 59 | 55 | 0.0 | 0.0 | 0.00 | 0.00 | 0.00 | 91 | 1014.3 |
| 20260906111003 | 59 | 55 | 0.0 | 0.0 | 0.00 | 0.00 | 0.00 | 91 | 1014.1 |
| 20260906110504 | 59 | 55 | 0.0 | 0.0 | 0.00 | 0.00 | 0.00 | 91 | 1013.9 |
| 20260906110011 | 59 | 55 | 0.0 | 0.0 | 0.00 | 0.00 | 0.00 | 91 | 1013.8 |
| 20260906105505 | 59 | 55 | 0.0 | 0.0 | 0.00 | 0.00 | 0.00 | 91 | 1013.7 |
| 20260906105006 | 59 | 55 | 0.0 | 0.0 | 0.00 | 0.00 | 0.00 | 91 | 1013.7 |
| 20260906104514 | 59 | 55 | 0.0 | 0.0 | 0.00 | 0.00 | 0.00 | 91 | 1013.7 |
| 20260906104008 | 59 | 55 | 0.0 | 0.0 | 0.00 | 0.00 | 0.00 | 91 | 1013.8 |
| 20260906103506 | 59 | 55 | 0.0 | 0.0 | 0.00 | 0.00 | 0.00 | 91 | 1013.7 |
| 20260906103012 | 59 | 55 | 0.0 | 0.0 | 0.00 | 0.00 | 0.00 | 91 | 1013.7 |
| 20260906102508 | 59 | 55 | 0.0 | 0.0 | 0.00 | 0.00 | 0.00 | 91 | 1013.5 |
| 20260906102009 | 59 | 55 | 0.0 | 0.0 | 0.00 | 0.00 | 0.00 | 91 | 1013.6 |
| 20260906101512 | 59 | 55 | 0.0 | 0.0 | 0.00 | 0.00 | 0.00 | 91 | 1013.5 |
| 20260906101009 | 59 | 55 | 0.0 | 0.0 | 0.00 | 0.00 | 0.00 | 91 | 1013.5 |
| 20260906100504 | 59 | 55 | 0.0 | 0.0 | 0.00 | 0.00 | 0.00 | 91 | 1013.5 |
| 20260906100004 | 59 | 55 | 0.0 | 0.0 | 0.00 | 0.00 | 0.00 | 91 | 1013.4 |
| 20260906095503 | 59 | 55 | 0.0 | 0.0 | 0.00 | 0.00 | 0.00 | 91 | 1013.4 |
| 20260906095003 | 60 | 55 | 0.0 | 0.0 | 0.00 | 0.00 | 0.00 | 91 | 1013.3 |
| 20260906094517 | 59 | 55 | 0.0 | 0.0 | 0.00 | 0.00 | 0.00 | 91 | 1013.3 |
| 20260906094004 | 60 | 55 | 0.0 | 0.0 | 0.00 | 0.00 | 0.00 | 91 | 1013.2 |
| 20260906093506 | 60 | 55 | 0.0 | 0.0 | 0.00 | 0.00 | 0.00 | 91 | 1013.2 |
| 20260906093012 | 60 | 55 | 0.0 | 0.0 | 0.00 | 0.00 | 0.00 | 91 | 1013.0 |
| 20260906092513 | 59 | 55 | 0.0 | 0.0 | 0.00 | 0.00 | 0.00 | 91 | 1013.1 |
| 20260906092010 | 59 | 55 | 0.0 | 0.0 | 0.00 | 0.00 | 0.00 | 91 | 1012.9 |
| 20260906091524 | 59 | 55 | 0.0 | 0.0 | 0.00 | 0.00 | 0.00 | 91 | 1012.9 |
| 20260906091010 | 59 | 55 | 0.0 | 0.0 | 0.00 | 0.00 | 0.00 | 91 | 1012.8 |
| 20260906090514 | 59 | 55 | 0.0 | 0.0 | 0.00 | 0.00 | 0.00 | 91 | 1012.8 |
| 20260906090017 | 59 | 55 | 0.0 | 0.0 | 0.00 | 0.00 | 0.00 | 91 | 1012.7 |
| 20260906085509 | 59 | 55 | 0.0 | 0.0 | 0.00 | 0.00 | 0.00 | 91 | 1012.8 |
| 20260906085005 | 59 | 55 | 0.0 | 0.0 | 0.00 | 0.00 | 0.00 | 91 | 1012.8 |
| 20260906084516 | 59 | 55 | 0.0 | 0.0 | 0.00 | 0.00 | 0.00 | 90 | 1012.8 |
| 20260906084004 | 59 | 55 | 0.0 | 0.0 | 0.00 | 0.00 | 0.00 | 91 | 1012.8 |
| 20260906083507 | 59 | 55 | 0.0 | 0.0 | 0.00 | 0.00 | 0.00 | 91 | 1012.8 |
| 20260906083014 | 59 | 55 | 0.0 | 0.0 | 0.00 | 0.00 | 0.00 | 91 | 1012.7 |
| 20260906082509 | 59 | 55 | 0.0 | 0.0 | 0.00 | 0.00 | 0.00 | 91 | 1012.5 |
| 20260906082010 | 59 | 55 | 0.0 | 0.0 | 0.00 | 0.00 | 0.00 | 91 | 1012.5 |
| 20260906081530 | 59 | 55 | 0.0 | 0.0 | 0.00 | 0.00 | 0.00 | 91 | 1012.4 |
| 20260906081009 | 59 | 55 | 0.0 | 0.0 | 0.00 | 0.00 | 0.00 | 91 | 1012.4 |
| 20260906080512 | 59 | 81 | 0.0 | 0.0 | 0.00 | 0.00 | 0.00 | 92 | 1012.4 |
| 20260906080017 | 59 | 81 | 0.0 | 0.0 | 0.00 | 0.00 | 0.00 | 92 | 1012.4 |
| 20260906075512 | 59 | 81 | 0.0 | 0.0 | 0.00 | 0.00 | 0.00 | 92 | 1012.4 |
| 20260906075012 | 59 | 81 | 0.0 | 0.0 | 0.00 | 0.00 | 0.00 | 92 | 1012.4 |
| 20260906074518 | 59 | 81 | 0.0 | 0.0 | 0.00 | 0.00 | 0.00 | 93 | 1012.4 |
| 20260906074012 | 59 | 81 | 0.0 | 0.0 | 0.00 | 0.00 | 0.00 | 93 | 1012.4 |
| 20260906073503 | 59 | 81 | 0.0 | 0.0 | 0.00 | 0.00 | 0.00 | 93 | 1012.4 |
| 20260906073008 | 59 | 81 | 0.0 | 0.0 | 0.00 | 0.00 | 0.00 | 93 | 1012.4 |
| 20260906072504 | 59 | 81 | 0.0 | 0.0 | 0.00 | 0.00 | 0.00 | 93 | 1012.4 |
| 20260906072005 | 58 | 81 | 0.0 | 0.0 | 0.00 | 0.00 | 0.00 | 93 | 1012.4 |
| 20260906071510 | 58 | 81 | 0.0 | 0.0 | 0.00 | 0.00 | 0.00 | 93 | 1012.4 |
| 20260906071011 | 58 | 81 | 0.0 | 0.0 | 0.00 | 0.00 | 0.00 | 93 | 1012.4 |
| 20260906070509 | 58 | 81 | 0.0 | 0.0 | 0.00 | 0.00 | 0.00 | 93 | 1012.4 |
| 20260906070017 | 58 | 81 | 0.0 | 0.0 | 0.00 | 0.00 | 0.00 | 93 | 1012.5 |
| 20260906065513 | 58 | 81 | 0.0 | 0.0 | 0.00 | 0.00 | 0.00 | 93 | 1012.5 |
| 20260906065015 | 58 | 81 | 0.0 | 0.0 | 0.00 | 0.00 | 0.00 | 93 | 1012.4 |
| 20260906064518 | 59 | 81 | 0.0 | 0.0 | 0.00 | 0.00 | 0.00 | 93 | 1012.4 |
| 20260906064012 | 59 | 81 | 0.0 | 0.0 | 0.00 | 0.00 | 0.00 | 93 | 1012.4 |
| 20260906063513 | 59 | 81 | 0.0 | 0.0 | 0.00 | 0.00 | 0.00 | 93 | 1012.4 |
| 20260906063023 | 59 | 81 | 0.0 | 0.0 | 0.00 | 0.00 | 0.00 | 93 | 1012.4 |
| 20260906062514 | 59 | 81 | 0.0 | 0.0 | 0.00 | 0.00 | 0.00 | 93 | 1012.4 |
| 20260906062005 | 59 | 81 | 0.0 | 0.0 | 0.00 | 0.00 | 0.00 | 93 | 1012.4 |
| 20260906061508 | 59 | 81 | 0.0 | 0.0 | 0.00 | 0.00 | 0.00 | 93 | 1012.5 |
| 20260906061008 | 59 | 81 | 0.0 | 0.0 | 0.00 | 0.00 | 0.00 | 94 | 1012.5 |
| 20260906060508 | 59 | 81 | 0.0 | 0.0 | 0.00 | 0.00 | 0.00 | 94 | 1012.6 |
| 20260906060015 | 59 | 81 | 0.0 | 0.0 | 0.00 | 0.00 | 0.00 | 94 | 1012.6 |
| 20260906055512 | 59 | 81 | 0.0 | 0.0 | 0.00 | 0.00 | 0.00 | 94 | 1012.6 |
| 20260906055012 | 59 | 81 | 0.0 | 0.0 | 0.00 | 0.00 | 0.00 | 94 | 1012.7 |
| 20260906054520 | 59 | 81 | 0.0 | 0.0 | 0.00 | 0.00 | 0.00 | 94 | 1012.7 |
| 20260906054014 | 58 | 81 | 0.0 | 0.0 | 0.00 | 0.00 | 0.00 | 94 | 1012.8 |
| 20260906053514 | 58 | 81 | 0.0 | 0.0 | 0.00 | 0.00 | 0.00 | 94 | 1012.8 |
| 20260906053030 | 58 | 81 | 0.0 | 0.0 | 0.00 | 0.00 | 0.00 | 94 | 1012.8 |
| 20260906052514 | 58 | 81 | 0.0 | 0.0 | 0.00 | 0.00 | 0.00 | 94 | 1012.8 |
| 20260906052016 | 58 | 81 | 0.0 | 0.0 | 0.00 | 0.00 | 0.00 | 94 | 1012.8 |
| 20260906051531 | 58 | 81 | 0.0 | 0.0 | 0.00 | 0.00 | 0.00 | 94 | 1012.8 |
| 20260906051018 | 58 | 81 | 0.0 | 0.0 | 0.00 | 0.00 | 0.00 | 94 | 1012.8 |
| 20260906050506 | 58 | 81 | 0.0 | 0.0 | 0.00 | 0.00 | 0.00 | 94 | 1012.7 |
| 20260906050026 | 58 | 81 | 0.0 | 0.0 | 0.00 | 0.00 | 0.00 | 94 | 1012.8 |
| 20260906045507 | 58 | 81 | 0.0 | 0.0 | 0.00 | 0.00 | 0.00 | 93 | 1012.8 |
| 20260906045010 | 58 | 81 | 0.0 | 0.0 | 0.00 | 0.00 | 0.00 | 93 | 1012.7 |
| 20260906044518 | 58 | 81 | 0.0 | 0.0 | 0.00 | 0.00 | 0.00 | 93 | 1012.6 |
| 20260906044012 | 58 | 81 | 0.0 | 0.0 | 0.00 | 0.00 | 0.00 | 93 | 1012.7 |
| 20260906043512 | 57 | 81 | 0.0 | 0.0 | 0.00 | 0.00 | 0.00 | 94 | 1012.6 |
| 20260906043027 | 57 | 81 | 0.0 | 0.0 | 0.00 | 0.00 | 0.00 | 93 | 1012.6 |
| 20260906042515 | 57 | 81 | 0.0 | 0.0 | 0.00 | 0.00 | 0.00 | 93 | 1012.6 |
| 20260906042013 | 57 | 81 | 0.0 | 0.0 | 0.00 | 0.00 | 0.00 | 93 | 1012.6 |
| 20260906041528 | 57 | 81 | 0.0 | 0.0 | 0.00 | 0.00 | 0.00 | 93 | 1012.6 |
| 20260906041017 | 57 | 81 | 0.0 | 0.0 | 0.00 | 0.00 | 0.00 | 93 | 1012.5 |
| 20260906040513 | 57 | 81 | 0.0 | 0.0 | 0.00 | 0.00 | 0.00 | 93 | 1012.5 |
| 20260906040028 | 57 | 81 | 0.0 | 0.0 | 0.00 | 0.00 | 0.00 | 93 | 1012.7 |
| 20260906035514 | 57 | 81 | 0.0 | 0.0 | 0.00 | 0.00 | 0.00 | 93 | 1012.6 |
| 20260906035009 | 57 | 81 | 0.0 | 0.0 | 0.00 | 0.00 | 0.00 | 93 | 1012.5 |
| 20260906034537 | 57 | 81 | 0.0 | 0.0 | 0.00 | 0.00 | 0.00 | 93 | 1012.6 |
| 20260906034011 | 57 | 81 | 0.0 | 0.0 | 0.00 | 0.00 | 0.00 | 93 | 1012.5 |
| 20260906033514 | 57 | 81 | 0.0 | 0.0 | 0.00 | 0.00 | 0.00 | 92 | 1012.6 |
| 20260906033025 | 57 | 81 | 0.0 | 0.0 | 0.00 | 0.00 | 0.00 | 92 | 1012.5 |
| 20260906032511 | 57 | 81 | 0.0 | 0.0 | 0.00 | 0.00 | 0.00 | 92 | 1012.6 |
| 20260906032014 | 57 | 81 | 0.0 | 0.0 | 0.00 | 0.00 | 0.00 | 92 | 1012.5 |
| 20260906031527 | 57 | 81 | 0.0 | 0.0 | 0.00 | 0.00 | 0.00 | 92 | 1012.5 |
| 20260906031019 | 57 | 81 | 0.0 | 0.0 | 0.00 | 0.00 | 0.00 | 92 | 1012.5 |
| 20260906030517 | 57 | 81 | 0.0 | 0.0 | 0.00 | 0.00 | 0.00 | 92 | 1012.5 |
| 20260906030028 | 57 | 81 | 0.0 | 0.0 | 0.00 | 0.00 | 0.00 | 92 | 1012.6 |
| 20260906025514 | 58 | 81 | 0.0 | 0.0 | 0.00 | 0.00 | 0.00 | 92 | 1012.6 |
| 20260906025017 | 58 | 81 | 0.0 | 0.0 | 0.00 | 0.00 | 0.00 | 92 | 1012.5 |
| 20260906024531 | 58 | 81 | 0.0 | 0.0 | 0.00 | 0.00 | 0.00 | 92 | 1012.6 |
| 20260906024016 | 58 | 81 | 0.0 | 0.0 | 0.00 | 0.00 | 0.00 | 92 | 1012.7 |
| 20260906023508 | 58 | 81 | 0.0 | 0.0 | 0.00 | 0.00 | 0.00 | 92 | 1012.5 |
| 20260906023018 | 58 | 81 | 0.0 | 0.0 | 0.00 | 0.00 | 0.00 | 91 | 1012.6 |
| 20260906022512 | 58 | 81 | 0.0 | 0.0 | 0.00 | 0.00 | 0.00 | 91 | 1012.6 |
| 20260906022005 | 58 | 81 | 0.0 | 0.0 | 0.00 | 0.00 | 0.00 | 91 | 1012.5 |
| 20260906021502 | 58 | 81 | 0.0 | 0.0 | 0.00 | 0.00 | 0.00 | 91 | 1012.5 |
| 20260906021003 | 58 | 81 | 0.0 | 0.0 | 0.00 | 0.00 | 0.00 | 91 | 1012.5 |
| 20260906020506 | 58 | 81 | 0.0 | 0.0 | 0.00 | 0.00 | 0.00 | 91 | 1012.5 |
| 20260906020004 | 58 | 81 | 0.0 | 0.0 | 0.00 | 0.00 | 0.00 | 91 | 1012.6 |
| 20260906015504 | 58 | 81 | 0.0 | 0.0 | 0.00 | 0.00 | 0.00 | 91 | 1012.6 |
| 20260906015005 | 58 | 81 | 0.0 | 0.0 | 0.00 | 0.00 | 0.00 | 91 | 1012.7 |
| 20260906014510 | 59 | 81 | 0.0 | 0.0 | 0.00 | 0.00 | 0.00 | 91 | 1012.7 |
| 20260906014005 | 59 | 81 | 0.0 | 0.0 | 0.00 | 0.00 | 0.00 | 91 | 1012.7 |
| 20260906013506 | 59 | 81 | 0.0 | 0.0 | 0.00 | 0.00 | 0.00 | 91 | 1012.5 |
| 20260906013012 | 59 | 81 | 0.0 | 0.0 | 0.00 | 0.00 | 0.00 | 91 | 1012.5 |
| 20260906012508 | 59 | 81 | 0.0 | 0.0 | 0.00 | 0.00 | 0.00 | 91 | 1012.5 |
| 20260906012012 | 59 | 81 | 0.0 | 0.0 | 0.00 | 0.00 | 0.00 | 91 | 1012.5 |
| 20260906011520 | 59 | 81 | 0.0 | 0.0 | 0.00 | 0.00 | 0.00 | 91 | 1012.5 |
| 20260906011012 | 59 | 81 | 0.0 | 0.0 | 0.00 | 0.00 | 0.00 | 91 | 1012.3 |
| 20260906010507 | 59 | 81 | 0.0 | 0.0 | 0.00 | 0.00 | 0.00 | 90 | 1012.4 |
| 20260906010003 | 59 | 81 | 0.0 | 0.0 | 0.00 | 0.00 | 0.00 | 90 | 1012.4 |
| 20260906005501 | 59 | 81 | 0.0 | 0.0 | 0.00 | 0.00 | 0.00 | 90 | 1012.5 |
| 20260906005003 | 59 | 81 | 0.0 | 0.0 | 0.00 | 0.00 | 0.00 | 90 | 1012.5 |
| 20260906004504 | 59 | 81 | 0.0 | 0.0 | 0.00 | 0.00 | 0.00 | 89 | 1012.4 |
| 20260906004005 | 60 | 81 | 0.0 | 0.0 | 0.00 | 0.00 | 0.00 | 89 | 1012.3 |
| 20260906003509 | 60 | 81 | 0.0 | 0.0 | 0.00 | 0.00 | 0.00 | 89 | 1012.2 |
| 20260906003010 | 60 | 81 | 0.0 | 0.0 | 0.00 | 0.00 | 0.00 | 89 | 1012.2 |
| 20260906002508 | 60 | 81 | 0.0 | 0.0 | 0.00 | 0.00 | 0.00 | 89 | 1011.9 |
| 20260906002008 | 60 | 81 | 0.0 | 0.0 | 0.00 | 0.00 | 0.00 | 88 | 1011.9 |
| 20260906001514 | 60 | 81 | 0.0 | 0.0 | 0.00 | 0.00 | 0.00 | 88 | 1011.9 |
| 20260906001010 | 61 | 81 | 0.0 | 0.0 | 0.00 | 0.00 | 0.00 | 88 | 1011.9 |
| 20260906000518 | 61 | 81 | 0.0 | 0.0 | 0.00 | 0.00 | 0.00 | 88 | 1012.0 |
| 20260906000028 | 61 | 81 | 0.0 | 0.0 | 0.00 | 0.00 | 0.00 | 88 | 1012.0 |
| 20260905235515 | 61 | 81 | 0.0 | 0.0 | 0.00 | 0.00 | 0.00 | 87 | 1012.0 |
| 20260905235002 | 61 | 81 | 0.0 | 0.0 | 0.00 | 0.00 | 0.00 | 87 | 1011.9 |
| 20260905234504 | 61 | 81 | 0.0 | 0.0 | 0.00 | 0.00 | 0.00 | 87 | 1011.9 |
| 20260905234007 | 62 | 81 | 0.0 | 0.0 | 0.00 | 0.00 | 0.00 | 87 | 1012.0 |
| 20260905233508 | 62 | 81 | 0.0 | 0.0 | 0.00 | 0.00 | 0.00 | 86 | 1012.0 |
| 20260905233012 | 62 | 81 | 0.0 | 0.0 | 0.00 | 0.00 | 0.00 | 86 | 1011.9 |
| 20260905232514 | 62 | 81 | 0.0 | 0.0 | 0.00 | 0.00 | 0.00 | 86 | 1011.8 |
| 20260905232008 | 62 | 81 | 0.0 | 0.0 | 0.00 | 0.00 | 0.00 | 85 | 1011.9 |
| 20260905231510 | 63 | 81 | 0.0 | 0.0 | 0.00 | 0.00 | 0.00 | 85 | 1011.9 |
| 20260905231011 | 63 | 81 | 0.0 | 0.0 | 0.00 | 0.00 | 0.00 | 85 | 1011.9 |
| 20260905230509 | 63 | 81 | 0.0 | 0.0 | 0.00 | 0.00 | 0.00 | 85 | 1011.9 |
| 20260905230017 | 63 | 81 | 0.0 | 0.0 | 0.00 | 0.00 | 0.00 | 85 | 1011.9 |
| 20260905225517 | 63 | 81 | 0.0 | 0.0 | 0.00 | 0.00 | 0.00 | 83 | 1011.8 |
| 20260905225014 | 63 | 81 | 0.0 | 0.0 | 0.00 | 0.00 | 0.00 | 83 | 1011.8 |
| 20260905224525 | 64 | 81 | 0.0 | 0.0 | 0.00 | 0.00 | 0.00 | 83 | 1011.8 |
| 20260905224019 | 64 | 81 | 0.0 | 0.0 | 0.00 | 0.00 | 0.00 | 83 | 1011.7 |
| 20260905223503 | 64 | 81 | 0.0 | 0.0 | 0.00 | 0.00 | 0.00 | 82 | 1011.8 |
| 20260905223004 | 64 | 81 | 0.0 | 0.0 | 0.00 | 0.00 | 0.00 | 81 | 1011.8 |
| 20260905222506 | 64 | 259 | 0.0 | 0.0 | 0.00 | 0.00 | 0.00 | 80 | 1011.8 |
| 20260905222009 | 64 | 239 | 0.0 | 0.0 | 0.00 | 0.00 | 0.00 | 80 | 1011.8 |
| 20260905221508 | 64 | 321 | 0.0 | 0.0 | 0.00 | 0.00 | 0.00 | 80 | 1011.6 |
| 20260905221010 | 64 | 259 | 0.0 | 0.0 | 0.00 | 0.00 | 0.00 | 80 | 1011.4 |
| 20260905220509 | 64 | 293 | 0.0 | 0.0 | 0.00 | 0.00 | 0.00 | 80 | 1011.3 |
| 20260905220017 | 64 | 346 | 0.0 | 0.0 | 0.00 | 0.00 | 0.00 | 80 | 1011.1 |
| 20260905215512 | 65 | 283 | 0.0 | 0.0 | 0.00 | 0.00 | 0.00 | 80 | 1011.1 |
| 20260905215011 | 65 | 308 | 0.0 | 0.0 | 0.00 | 0.01 | 0.00 | 80 | 1011.0 |
| 20260905214523 | 65 | 326 | 0.0 | 0.0 | 0.00 | 0.01 | 0.00 | 80 | 1011.1 |
| 20260905214014 | 65 | 314 | 0.0 | 0.0 | 0.00 | 0.01 | 0.00 | 81 | 1011.0 |
| 20260905213516 | 66 | 347 | 0.0 | 0.0 | 0.00 | 0.01 | 0.00 | 82 | 1010.9 |
| 20260905213025 | 66 | 323 | 0.0 | 0.0 | 0.00 | 0.01 | 0.00 | 82 | 1010.8 |
| 20260905212516 | 66 | 239 | 0.0 | 0.0 | 0.00 | 0.01 | 0.00 | 81 | 1010.8 |
| 20260905212018 | 66 | 306 | 0.0 | 0.0 | 0.00 | 0.01 | 0.00 | 81 | 1010.8 |
| 20260905211508 | 66 | 286 | 0.0 | 0.0 | 0.00 | 0.01 | 0.00 | 81 | 1010.7 |
| 20260905211007 | 66 | 276 | 0.0 | 0.0 | 0.00 | 0.01 | 0.00 | 80 | 1010.7 |
| 20260905210506 | 66 | 2 | 0.0 | 0.0 | 0.00 | 0.01 | 0.00 | 80 | 1010.6 |
| 20260905210011 | 67 | 285 | 0.0 | 0.0 | 0.00 | 0.01 | 0.00 | 80 | 1010.6 |
| 20260905205511 | 67 | 285 | 0.0 | 0.0 | 0.00 | 0.01 | 0.00 | 82 | 1010.6 |
| 20260905205012 | 67 | 271 | 0.0 | 0.0 | 0.00 | 0.01 | 0.00 | 83 | 1010.5 |
| 20260905204521 | 66 | 315 | 0.0 | 0.0 | 0.00 | 0.01 | 0.00 | 82 | 1010.4 |
| 20260905204013 | 66 | 338 | 0.0 | 0.0 | 0.00 | 0.01 | 0.00 | 81 | 1010.4 |
| 20260905203512 | 67 | 275 | 0.0 | 0.0 | 0.00 | 0.01 | 0.00 | 82 | 1010.4 |
| 20260905203026 | 67 | 6 | 0.0 | 0.0 | 0.00 | 0.01 | 0.00 | 81 | 1010.4 |
| 20260905202516 | 67 | 331 | 0.0 | 0.0 | 0.00 | 0.01 | 0.00 | 81 | 1010.3 |
| 20260905202014 | 67 | 359 | 0.0 | 0.0 | 0.00 | 0.01 | 0.00 | 82 | 1010.2 |
| 20260905201537 | 67 | 311 | 0.0 | 0.0 | 0.00 | 0.01 | 0.00 | 82 | 1010.2 |
| 20260905201017 | 67 | 15 | 0.0 | 0.0 | 0.00 | 0.01 | 0.00 | 83 | 1010.2 |
| 20260905200509 | 67 | 342 | 0.0 | 0.0 | 0.00 | 0.01 | 0.00 | 82 | 1010.2 |
| 20260905200010 | 67 | 305 | 0.0 | 0.0 | 0.00 | 0.01 | 0.00 | 81 | 1010.3 |
| 20260905195508 | 68 | 309 | 0.0 | 0.0 | 0.00 | 0.01 | 0.00 | 82 | 1010.3 |
| 20260905195014 | 68 | 236 | 0.0 | 0.0 | 0.00 | 0.01 | 0.00 | 82 | 1010.2 |
| 20260905194516 | 68 | 235 | 0.0 | 0.0 | 0.00 | 0.01 | 0.00 | 80 | 1010.2 |
| 20260905194012 | 68 | 262 | 0.0 | 0.0 | 0.00 | 0.01 | 0.00 | 81 | 1010.2 |
| 20260905193511 | 69 | 250 | 0.0 | 0.0 | 0.00 | 0.01 | 0.00 | 80 | 1010.2 |
| 20260905193028 | 69 | 257 | 0.0 | 0.0 | 0.00 | 0.01 | 0.00 | 80 | 1010.1 |
| 20260905192515 | 69 | 302 | 0.0 | 0.0 | 0.00 | 0.01 | 0.00 | 78 | 1010.1 |
| 20260905192019 | 69 | 359 | 0.0 | 0.0 | 0.00 | 0.01 | 0.00 | 80 | 1010.0 |
| 20260905191527 | 69 | 45 | 0.0 | 0.0 | 0.00 | 0.01 | 0.00 | 79 | 1010.1 |
| 20260905191016 | 70 | 243 | 0.0 | 0.0 | 0.00 | 0.01 | 0.00 | 79 | 1010.1 |
| 20260905190516 | 70 | 321 | 0.0 | 0.0 | 0.00 | 0.01 | 0.00 | 80 | 1010.1 |
| 20260905190034 | 70 | 308 | 0.0 | 0.0 | 0.00 | 0.01 | 0.00 | 79 | 1010.1 |
| 20260905185519 | 70 | 326 | 0.0 | 0.0 | 0.00 | 0.01 | 0.00 | 79 | 1010.1 |
| 20260905185006 | 69 | 345 | 0.0 | 0.0 | 0.00 | 0.01 | 0.00 | 79 | 1010.2 |
| 20260905184517 | 69 | 320 | 0.0 | 0.0 | 0.00 | 0.01 | 0.00 | 79 | 1010.2 |
| 20260905184021 | 69 | 349 | 0.0 | 0.0 | 0.00 | 0.01 | 0.00 | 81 | 1010.1 |
| 20260905183519 | 70 | 349 | 0.0 | 0.0 | 0.00 | 0.01 | 0.00 | 80 | 1010.2 |
| 20260905183025 | 70 | 295 | 0.0 | 0.0 | 0.00 | 0.01 | 0.00 | 78 | 1010.2 |
| 20260905182513 | 70 | 340 | 0.0 | 0.0 | 0.00 | 0.01 | 0.00 | 79 | 1010.3 |
| 20260905182014 | 70 | 326 | 0.0 | 0.0 | 0.00 | 0.01 | 0.00 | 79 | 1010.2 |
| 20260905181526 | 70 | 323 | 0.0 | 0.0 | 0.00 | 0.01 | 0.00 | 79 | 1010.2 |
| 20260905181019 | 70 | 281 | 0.0 | 0.0 | 0.00 | 0.01 | 0.00 | 79 | 1010.2 |
| 20260905180516 | 70 | 331 | 0.0 | 0.0 | 0.00 | 0.01 | 0.00 | 79 | 1010.2 |
| 20260905180028 | 69 | 293 | 0.0 | 0.0 | 0.00 | 0.01 | 0.00 | 79 | 1010.2 |
| 20260905175515 | 69 | 295 | 0.0 | 0.0 | 0.00 | 0.01 | 0.00 | 80 | 1010.1 |
| 20260905175019 | 69 | 337 | 0.0 | 0.0 | 0.00 | 0.01 | 0.00 | 80 | 1010.2 |
| 20260905174540 | 69 | 316 | 0.0 | 0.0 | 0.00 | 0.01 | 0.00 | 81 | 1010.2 |
| 20260905174017 | 69 | 302 | 0.0 | 0.0 | 0.00 | 0.01 | 0.00 | 80 | 1010.1 |
| 20260905173508 | 69 | 300 | 0.0 | 0.0 | 0.00 | 0.01 | 0.00 | 81 | 1010.1 |
| 20260905173015 | 69 | 300 | 0.0 | 0.0 | 0.00 | 0.01 | 0.00 | 80 | 1010.1 |
| 20260905172517 | 70 | 289 | 0.0 | 0.0 | 0.00 | 0.01 | 0.00 | 78 | 1010.0 |
| 20260905172002 | 70 | 313 | 0.0 | 0.0 | 0.00 | 0.01 | 0.00 | 78 | 1010.0 |
| 20260905171503 | 70 | 300 | 0.0 | 0.0 | 0.00 | 0.01 | 0.00 | 78 | 1009.9 |
| 20260905171006 | 70 | 360 | 0.0 | 0.0 | 0.00 | 0.01 | 0.00 | 77 | 1009.8 |
| 20260905170514 | 70 | 338 | 0.0 | 0.0 | 0.00 | 0.01 | 0.00 | 79 | 1009.8 |
| 20260905170003 | 71 | 321 | 0.0 | 0.0 | 0.00 | 0.01 | 0.00 | 77 | 1009.8 |
| 20260905165503 | 71 | 34 | 0.0 | 0.0 | 0.00 | 0.01 | 0.00 | 78 | 1009.8 |
| 20260905165004 | 71 | 271 | 0.0 | 0.0 | 0.00 | 0.01 | 0.00 | 78 | 1009.7 |
| 20260905164508 | 71 | 300 | 0.0 | 0.0 | 0.00 | 0.01 | 0.00 | 78 | 1009.7 |
| 20260905164008 | 70 | 319 | 0.0 | 0.0 | 0.00 | 0.01 | 0.00 | 80 | 1009.7 |
| 20260905163507 | 70 | 333 | 0.0 | 0.0 | 0.00 | 0.01 | 0.00 | 79 | 1009.8 |
| 20260905163014 | 70 | 276 | 0.0 | 0.0 | 0.00 | 0.01 | 0.00 | 78 | 1009.7 |
| 20260905162508 | 70 | 326 | 0.0 | 0.0 | 0.00 | 0.01 | 0.00 | 77 | 1009.7 |
| 20260905162011 | 70 | 302 | 0.0 | 0.0 | 0.00 | 0.01 | 0.00 | 78 | 1009.7 |
| 20260905161517 | 70 | 333 | 0.0 | 0.0 | 0.00 | 0.01 | 0.00 | 79 | 1009.7 |
| 20260905161019 | 71 | 283 | 0.0 | 0.0 | 0.00 | 0.01 | 0.00 | 78 | 1009.7 |
| 20260905160503 | 71 | 91 | 0.0 | 0.0 | 0.00 | 0.01 | 0.00 | 78 | 1009.6 |
| 20260905160003 | 71 | 289 | 0.0 | 0.0 | 0.00 | 0.01 | 0.00 | 76 | 1009.5 |
| 20260905155504 | 71 | 299 | 0.0 | 0.0 | 0.00 | 0.01 | 0.00 | 77 | 1009.4 |
| 20260905155003 | 71 | 199 | 0.0 | 0.0 | 0.00 | 0.01 | 0.00 | 76 | 1009.5 |
| 20260905154505 | 71 | 302 | 0.0 | 0.0 | 0.00 | 0.01 | 0.00 | 75 | 1009.4 |
| 20260905154004 | 71 | 269 | 0.0 | 0.0 | 0.00 | 0.01 | 0.00 | 76 | 1009.4 |
| 20260905153506 | 72 | 269 | 0.0 | 0.0 | 0.00 | 0.01 | 0.00 | 76 | 1009.3 |
| 20260905153012 | 72 | 269 | 0.0 | 0.0 | 0.00 | 0.01 | 0.00 | 73 | 1009.3 |
| 20260905152508 | 72 | 313 | 0.0 | 0.0 | 0.00 | 0.01 | 0.00 | 75 | 1009.2 |
| 20260905152012 | 72 | 302 | 0.0 | 0.0 | 0.00 | 0.01 | 0.00 | 73 | 1009.2 |
| 20260905151517 | 73 | 291 | 0.0 | 0.0 | 0.00 | 0.01 | 0.00 | 72 | 1009.2 |
| 20260905151012 | 72 | 25 | 0.0 | 0.0 | 0.00 | 0.01 | 0.00 | 74 | 1009.1 |
| 20260905150512 | 72 | 328 | 0.0 | 0.0 | 0.00 | 0.01 | 0.00 | 76 | 1009.0 |
| 20260905150028 | 71 | 323 | 0.0 | 0.0 | 0.00 | 0.01 | 0.00 | 78 | 1009.1 |
| 20260905145516 | 71 | 299 | 0.0 | 0.0 | 0.00 | 0.01 | 0.00 | 79 | 1009.1 |
| 20260905145003 | 71 | 323 | 0.0 | 0.0 | 0.00 | 0.01 | 0.00 | 79 | 1009.2 |
| 20260905144515 | 71 | 1 | 0.0 | 0.0 | 0.00 | 0.01 | 0.00 | 80 | 1009.2 |
| 20260905144005 | 72 | 1 | 0.0 | 0.0 | 0.00 | 0.01 | 0.00 | 79 | 1009.3 |
| 20260905143503 | 72 | 356 | 0.0 | 0.0 | 0.00 | 0.01 | 0.00 | 80 | 1009.3 |
| 20260905143018 | 72 | 255 | 0.0 | 0.0 | 0.00 | 0.01 | 0.00 | 80 | 1009.2 |
| 20260905142506 | 71 | 323 | 0.0 | 0.0 | 0.00 | 0.01 | 0.00 | 80 | 1009.3 |
| 20260905142010 | 71 | 323 | 0.0 | 0.0 | 0.00 | 0.01 | 0.00 | 78 | 1009.3 |
| 20260905141520 | 71 | 319 | 0.0 | 0.0 | 0.00 | 0.01 | 0.00 | 81 | 1009.3 |
| 20260905141014 | 71 | 246 | 0.0 | 0.0 | 0.00 | 0.01 | 0.00 | 80 | 1009.2 |
| 20260905140510 | 70 | 285 | 0.0 | 0.0 | 0.00 | 0.01 | 0.00 | 80 | 1009.2 |
| 20260905140020 | 70 | 264 | 0.0 | 0.0 | 0.00 | 0.01 | 0.00 | 81 | 1009.2 |
| 20260905135512 | 70 | 236 | 0.0 | 0.0 | 0.00 | 0.01 | 0.00 | 81 | 1009.2 |
| 20260905135014 | 70 | 316 | 0.0 | 0.0 | 0.00 | 0.01 | 0.00 | 83 | 1009.2 |